Weather History for Ashtabula, OH

Change the Weather History Date:

Tuesday, February 5, 2013

  Actual Average (KYNG) Record (KYNG)
Temperature  
Mean Temperature 21 °F 27 °F  
Max Temperature 27 °F 34 °F 58 °F (2008)
Min Temperature 15 °F 20 °F -5 °F (2007)
Degree Days  
Heating Degree Days 44 38  
Month to date heating degree days 193  
Since 1 July heating degree days 3816  
Cooling Degree Days 0 0  
Month to date cooling degree days 0  
Year to date cooling degree days 0  
Moisture  
Dew Point 16 °F    
Average Humidity 78    
Maximum Humidity 88    
Minimum Humidity 63    
Precipitation  
Precipitation 0.03 in 0.07 in 0.93 in (2008)
Month to date precipitation 0.37  
Year to date precipitation 2.92  
Snow  
Snow 0.00 in 0.40 in - ()
Month to date snowfall 2.3  
Since 1 July snowfall 38.3  
Snow Depth -    
Sea Level Pressure  
Sea Level Pressure 29.90 in    
Wind  
Wind Speed 2 mph (SW)    
Max Wind Speed 8 mph    
Max Gust Speed -    
Visibility 8 miles    
Events Snow    
T = Trace of Precipitation, MM = Missing Value Source: NWS Daily Summary

Daily Weather History Graph

Daily Weather History Graph

Search for Another Location

Airport:

Trip Planner

Search our weather history database for the weather conditions in past years. The results will help you decide how hot, cold, wet, or windy it might be!

Date:

Astronomy

Feb. 05, 2013 Rise Set
Actual Time 7:30 AM EST 5:43 PM EST
Civil Twilight 7:01 AM EST 6:12 PM EST
Nautical Twilight 6:28 AM EST 6:45 PM EST
Astronomical Twilight 5:55 AM EST 7:18 PM EST
Moon 3:12 AM EST (2/5) 12:58 PM EST (2/5)
Length of Visible Light 11h 11m
Length of Day
10h 13m
Waning Crescent, 27% of the Moon is Illuminated
Feb 5
Waning Crescent
Feb 10
New
Feb 17
First Quarter
Feb 25
Full
Mar 4
Last Quarter

Hourly Weather History & Observations

Time (EST) Temp. Windchill Dew Point Humidity Pressure Visibility Wind Dir Wind Speed Gust Speed Precip Events Conditions
12:11 AM 19.4 °F - 15.8 °F 86% 29.88 in 2.5 mi Calm Calm - 0.00 in Snow Light Snow
12:26 AM 19.4 °F - 15.8 °F 86% 29.87 in 3.0 mi Calm Calm - 0.01 in Snow Light Snow
12:53 AM 19.9 °F - 15.1 °F 81% 29.90 in 4.0 mi Calm Calm - 0.01 in Snow Light Snow
1:02 AM 19.4 °F - 15.8 °F 86% 29.86 in 4.0 mi Calm Calm - 0.00 in Snow Light Snow
1:13 AM 19.4 °F - 15.8 °F 86% 29.86 in 4.0 mi Calm Calm - 0.00 in Snow Light Snow
1:40 AM 19.4 °F - 15.8 °F 86% 29.87 in 6.0 mi Calm Calm - 0.00 in   Overcast
1:53 AM 19.0 °F - 15.1 °F 85% 29.93 in 7.0 mi Calm Calm - 0.00 in   Overcast
2:53 AM 19.0 °F - 14.0 °F 81% 29.91 in 7.0 mi Calm Calm - N/A   Overcast
3:53 AM 19.0 °F - 14.0 °F 81% 29.91 in 9.0 mi Calm Calm - N/A   Overcast
4:34 AM 19.4 °F - 15.8 °F 86% 29.89 in 9.0 mi Calm Calm - N/A   Overcast
4:53 AM 19.0 °F - 15.1 °F 85% 29.94 in 9.0 mi Calm Calm - N/A   Overcast
5:07 AM 19.4 °F 14.3 °F 15.8 °F 86% 29.90 in 9.0 mi North 3.5 mph - N/A   Overcast
5:14 AM 19.4 °F - 15.8 °F 86% 29.90 in 9.0 mi Calm Calm - N/A   Overcast
5:40 AM 19.4 °F - 15.8 °F 86% 29.89 in 9.0 mi Calm Calm - N/A   Overcast
5:53 AM 19.9 °F - 15.1 °F 81% 29.93 in 9.0 mi Calm Calm - N/A   Overcast
6:53 AM 19.9 °F - 15.1 °F 81% 29.93 in 10.0 mi Calm Calm - N/A   Overcast
7:08 AM 19.4 °F 11.5 °F 15.8 °F 86% 29.89 in 10.0 mi East 5.8 mph - N/A   Overcast
7:53 AM 16.0 °F 8.8 °F 12.0 °F 84% 29.93 in 10.0 mi ESE 4.6 mph - N/A   Mostly Cloudy
8:53 AM 15.1 °F 9.4 °F 12.0 °F 88% 29.94 in 6.0 mi SE 3.5 mph - N/A   Clear
9:53 AM 19.0 °F 13.9 °F 14.0 °F 81% 29.95 in 9.0 mi SE 3.5 mph - N/A   Mostly Cloudy
10:01 AM 19.4 °F - 14.0 °F 80% 29.91 in 10.0 mi Calm Calm - N/A   Mostly Cloudy
10:29 AM 21.2 °F 13.6 °F 15.8 °F 80% 29.90 in 10.0 mi SE 5.8 mph - N/A   Overcast
10:53 AM 23.0 °F 18.4 °F 15.1 °F 72% 29.94 in 10.0 mi SE 3.5 mph - N/A   Mostly Cloudy
11:14 AM 23.0 °F - 15.8 °F 74% 29.89 in 10.0 mi Calm Calm - N/A   Partly Cloudy
11:53 AM 24.1 °F 17.0 °F 15.1 °F 69% 29.94 in 10.0 mi SW 5.8 mph - N/A   Mostly Cloudy
12:22 PM 24.8 °F 20.5 °F 15.8 °F 69% 29.87 in 10.0 mi West 3.5 mph - N/A   Mostly Cloudy
12:35 PM 24.8 °F 17.9 °F 15.8 °F 69% 29.87 in 10.0 mi SW 5.8 mph - N/A   Overcast
12:53 PM 25.0 °F - 15.1 °F 66% 29.89 in 10.0 mi Calm Calm - N/A   Mostly Cloudy
1:43 PM 26.6 °F 20.0 °F 15.8 °F 64% 29.83 in 10.0 mi SW 5.8 mph - N/A   Scattered Clouds
1:53 PM 26.1 °F - 15.1 °F 63% 29.87 in 10.0 mi Calm Calm - N/A   Partly Cloudy
2:23 PM 26.6 °F - 15.8 °F 64% 29.82 in 10.0 mi Calm Calm - N/A   Mostly Cloudy
2:53 PM 26.1 °F 20.5 °F 15.1 °F 63% 29.86 in 10.0 mi WSW 4.6 mph - N/A   Overcast
3:05 PM 26.6 °F 19.1 °F 15.8 °F 64% 29.83 in 10.0 mi WSW 6.9 mph - N/A   Overcast
3:53 PM 27.0 °F 20.5 °F 16.0 °F 63% 29.87 in 10.0 mi SSW 5.8 mph - N/A   Overcast
4:53 PM 26.1 °F 19.4 °F 16.0 °F 66% 29.87 in 10.0 mi WSW 5.8 mph - N/A   Mostly Cloudy
5:53 PM 25.0 °F - 17.1 °F 72% 29.89 in 10.0 mi Calm Calm - N/A   Overcast
6:53 PM 25.0 °F - 18.0 °F 75% 29.90 in 10.0 mi Calm Calm - N/A   Overcast
7:53 PM 25.0 °F - 17.1 °F 72% 29.93 in 10.0 mi Calm Calm - N/A   Overcast
8:48 PM 24.8 °F 17.9 °F 19.4 °F 80% 29.90 in 1.8 mi West 5.8 mph - 0.00 in Snow Light Snow
8:53 PM 25.0 °F 16.3 °F 19.0 °F 78% 29.95 in 1.2 mi West 8.1 mph - 0.00 in Snow Light Snow
8:58 PM 24.8 °F 16.1 °F 19.4 °F 80% 29.90 in 0.8 mi West 8.1 mph - 0.00 in Snow Light Snow
9:06 PM 24.8 °F 16.9 °F 19.4 °F 80% 29.90 in 0.5 mi WSW 6.9 mph - 0.01 in Snow Snow
9:20 PM 24.8 °F 16.9 °F 19.4 °F 80% 29.90 in 1.0 mi WSW 6.9 mph - 0.02 in Snow Light Snow
9:25 PM 24.8 °F 16.9 °F 19.4 °F 80% 29.90 in 1.2 mi WSW 6.9 mph - 0.02 in Snow Light Snow
9:37 PM 24.8 °F 17.9 °F 19.4 °F 80% 29.90 in 2.0 mi SW 5.8 mph - 0.02 in Snow Light Snow
9:53 PM 23.0 °F 17.0 °F 19.0 °F 85% 29.95 in 4.0 mi WSW 4.6 mph - 0.02 in Snow Light Snow
10:53 PM 23.0 °F 17.0 °F 19.0 °F 85% 29.94 in 10.0 mi SSW 4.6 mph - 0.00 in   Overcast
11:07 PM 23.0 °F 15.8 °F 19.4 °F 86% 29.91 in 10.0 mi SSW 5.8 mph - N/A   Overcast
11:15 PM 24.8 °F 17.9 °F 19.4 °F 80% 29.91 in 10.0 mi SSW 5.8 mph - N/A   Overcast
11:53 PM 24.1 °F 17.0 °F 19.0 °F 81% 29.94 in 10.0 mi SW 5.8 mph - N/A   Overcast